Change the Weather History Date:

Wednesday, September 11, 2013

  Actual Average Record
Temperature  
Mean Temperature 83 °F -  
Max Temperature 95 °F 75 °F 95 °F (1952)
Min Temperature 72 °F 50 °F 34 °F (1967)
Cooling Degree Days 18    
Growing Degree Days 33 (Base 50)    
Moisture  
Dew Point 69 °F    
Average Humidity 68    
Maximum Humidity 93    
Minimum Humidity 41    
Precipitation  
Precipitation 0.14 in - - ()
Sea Level Pressure  
Sea Level Pressure 30.03 in    
Wind  
Wind Speed 8 mph (SSE)    
Max Wind Speed 21 mph    
Max Gust Speed 26 mph    
Visibility 9 miles    
Events Rain , Thunderstorm    
Averages and records for this station are not official NWS values.
T = Trace of Precipitation, MM = Missing Value Source: NWS Daily Summary

Daily Weather History Graph

Daily Weather History Graph

Search for Another Location

Airport or City:

Trip Planner

Search our weather history database for the weather conditions in past years. The results will help you decide how hot, cold, wet, or windy it might be!

Date:

Astronomy

Sep. 11, 2013 Rise Set
Actual Time 6:46 AM EDT 7:27 PM EDT
Civil Twilight 6:18 AM EDT 7:55 PM EDT
Nautical Twilight 5:44 AM EDT 8:29 PM EDT
Astronomical Twilight 5:09 AM EDT 9:04 PM EDT
Moon 1:21 PM EDT (9/11) 11:13 PM EDT (9/11)
Length of Visible Light 13h 37m
Length of Day
12h 40m
Waxing Crescent, 38% of the Moon is Illuminated
Sep 11
Waxing Crescent
Sep 12
First Quarter
Sep 19
Full
Sep 26
Last Quarter
Oct 4
New

Hourly Weather History & Observations

Time (EDT) Temp. Heat Index Dew Point Humidity Pressure Visibility Wind Dir Wind Speed Gust Speed Precip Events Conditions
12:54 AM 75.0 °F - 72.0 °F 90% 30.08 in 7.0 mi SSE 4.6 mph - N/A   Clear
1:54 AM 73.9 °F - 72.0 °F 93% 30.07 in 6.0 mi Variable 5.8 mph - N/A   Clear
2:54 AM 77.0 °F - 72.0 °F 84% 30.06 in 8.0 mi SE 9.2 mph - N/A   Clear
3:54 AM 73.9 °F - 71.1 °F 91% 30.06 in 6.0 mi South 6.9 mph - N/A   Clear
4:54 AM 75.0 °F - 71.1 °F 87% 30.06 in 6.0 mi SSE 6.9 mph - N/A   Clear
5:54 AM 78.1 °F - 72.0 °F 81% 30.08 in 8.0 mi ESE 9.2 mph - N/A   Clear
6:54 AM 77.0 °F - 72.0 °F 84% 30.10 in 6.0 mi SSE 5.8 mph - N/A   Haze
7:54 AM 79.0 °F - 72.0 °F 79% 30.10 in 6.0 mi ESE 10.4 mph - N/A   Haze
8:54 AM 82.0 °F 87.4 °F 73.0 °F 74% 30.09 in 7.0 mi ESE 9.2 mph - N/A   Clear
9:54 AM 86.0 °F 92.2 °F 72.0 °F 63% 30.09 in 9.0 mi SE 10.4 mph - N/A   Clear
10:54 AM 89.1 °F 95.0 °F 71.1 °F 55% 30.07 in 10.0 mi South 10.4 mph - N/A   Clear
11:54 AM 91.0 °F 96.6 °F 70.0 °F 50% 30.06 in 10.0 mi SSW 6.9 mph - N/A   Clear
12:54 PM 93.0 °F 97.9 °F 69.1 °F 45% 30.05 in 10.0 mi SW 4.6 mph 16.1 mph N/A   Clear
1:54 PM 93.9 °F 99.1 °F 69.1 °F 44% 30.03 in 10.0 mi SW 8.1 mph - N/A   Partly Cloudy
2:38 PM 93.2 °F 96.2 °F 66.2 °F 41% 29.99 in 10.0 mi West 8.1 mph - N/A Thunderstorm Clear
2:54 PM 93.0 °F 97.4 °F 68.0 °F 44% 30.00 in 10.0 mi Calm Calm - N/A   Clear
3:42 PM 91.4 °F 96.8 °F 69.8 °F 49% 29.98 in 10.0 mi SW 8.1 mph - N/A Thunderstorm Clear
3:54 PM 91.9 °F 98.4 °F 71.1 °F 50% 29.99 in 10.0 mi Variable 3.5 mph - N/A   Partly Cloudy
4:11 PM 91.4 °F 96.8 °F 69.8 °F 49% 29.96 in 9.0 mi NW 8.1 mph - N/A Thunderstorm Scattered Clouds
4:54 PM 91.9 °F 96.9 °F 69.1 °F 47% 29.97 in 10.0 mi NW 8.1 mph - N/A Thunderstorm Clear
5:01 PM 91.4 °F 96.8 °F 69.8 °F 49% 29.96 in 10.0 mi NW 9.2 mph - N/A   Partly Cloudy
5:54 PM 84.9 °F 88.8 °F 69.1 °F 59% 30.00 in 10.0 mi South 12.7 mph - N/A Thunderstorm Partly Cloudy
6:25 PM 80.6 °F 82.7 °F 66.2 °F 61% 30.00 in 10.0 mi South 10.4 mph 23.0 mph N/A   Overcast
6:41 PM 80.6 °F 82.7 °F 66.2 °F 61% 30.01 in 10.0 mi SE 10.4 mph - N/A Thunderstorm Overcast
6:54 PM 79.0 °F - 66.0 °F 64% 30.02 in 10.0 mi SSE 10.4 mph - N/A Thunderstorm Mostly Cloudy
7:13 PM 77.0 °F - 69.8 °F 78% 30.00 in 1.8 mi SSE 20.7 mph 26.5 mph 0.12 in Rain , Thunderstorm Heavy Rain
7:21 PM 75.2 °F - 69.8 °F 83% 30.01 in 3.0 mi South 11.5 mph 26.5 mph 0.14 in Rain , Thunderstorm Light Rain
7:54 PM 75.0 °F - 68.0 °F 79% 30.04 in 10.0 mi South 13.8 mph 19.6 mph 0.14 in Thunderstorm Overcast
8:22 PM 73.4 °F - 68.0 °F 83% 30.01 in 10.0 mi ESE 6.9 mph - N/A   Scattered Clouds
8:54 PM 73.9 °F - 68.0 °F 82% 30.02 in 10.0 mi East 8.1 mph - N/A   Clear
9:54 PM 73.0 °F - 66.9 °F 81% 30.02 in 10.0 mi SE 13.8 mph - N/A   Partly Cloudy
10:54 PM 73.0 °F - 66.0 °F 79% 30.00 in 10.0 mi ESE 10.4 mph - N/A   Clear
11:54 PM 72.0 °F - 66.0 °F 81% 29.97 in 10.0 mi ESE 9.2 mph - N/A   Clear